TimeCST,TemperatureF,Dew PointF,Humidity,Sea Level PressureIn,VisibilityMPH,Wind Direction,Wind SpeedMPH,Gust SpeedMPH,PrecipitationIn,Events,Conditions,WindDirDegrees,DateUTC
12:52 AM,37.0,27.0,67,30.19,10.0,Calm,Calm,-,N/A,,Clear,0,2012-01-08 06:52:00
1:52 AM,34.0,27.0,75,30.19,10.0,NNE,3.5,-,N/A,,Partly Cloudy,30,2012-01-08 07:52:00
2:52 AM,34.0,28.9,82,30.19,10.0,Calm,Calm,-,N/A,,Overcast,0,2012-01-08 08:52:00
3:52 AM,37.9,28.9,70,30.19,10.0,NE,4.6,-,N/A,,Overcast,40,2012-01-08 09:52:00
4:52 AM,36.0,28.0,73,30.19,10.0,NNE,4.6,-,N/A,,Clear,30,2012-01-08 10:52:00
5:52 AM,35.1,28.0,76,30.20,10.0,NNE,5.8,-,N/A,,Scattered Clouds,20,2012-01-08 11:52:00
7:52 AM,35.1,28.0,76,30.24,10.0,North,4.6,-,N/A,,Clear,350,2012-01-08 13:52:00
8:52 AM,39.0,30.9,73,30.25,10.0,ENE,5.8,-,N/A,,Clear,60,2012-01-08 14:52:00
9:52 AM,42.1,30.9,65,30.26,10.0,ENE,5.8,-,N/A,,Clear,60,2012-01-08 15:52:00
10:52 AM,46.9,32.0,56,30.25,10.0,NE,8.1,-,N/A,,Mostly Cloudy,50,2012-01-08 16:52:00
11:52 AM,50.0,33.1,52,30.21,10.0,East,9.2,-,N/A,,Clear,80,2012-01-08 17:52:00
12:52 PM,53.1,30.9,43,30.19,10.0,East,10.4,-,N/A,,Clear,90,2012-01-08 18:52:00
1:52 PM,54.0,30.0,40,30.19,10.0,ENE,11.5,-,N/A,,Clear,70,2012-01-08 19:52:00
2:52 PM,54.0,30.0,40,30.19,10.0,ENE,6.9,-,N/A,,Mostly Cloudy,70,2012-01-08 20:52:00
3:52 PM,53.1,30.0,41,30.19,10.0,NE,5.8,-,N/A,,Overcast,50,2012-01-08 21:52:00
4:52 PM,51.1,30.0,44,30.20,10.0,Calm,Calm,-,N/A,,Overcast,0,2012-01-08 22:52:00
5:52 PM,48.9,30.9,50,30.21,10.0,East,5.8,-,N/A,,Overcast,80,2012-01-08 23:52:00
6:52 PM,48.9,32.0,52,30.21,10.0,ENE,5.8,-,N/A,,Overcast,60,2012-01-09 00:52:00
7:52 PM,48.9,32.0,52,30.20,10.0,ENE,5.8,-,N/A,,Overcast,70,2012-01-09 01:52:00
8:52 PM,48.0,32.0,54,30.19,10.0,East,9.2,-,N/A,,Overcast,80,2012-01-09 02:52:00
9:52 PM,48.0,30.9,52,30.20,10.0,ENE,4.6,-,N/A,,Overcast,60,2012-01-09 03:52:00
10:52 PM,46.9,32.0,56,30.17,10.0,East,5.8,-,N/A,,Overcast,100,2012-01-09 04:52:00
11:52 PM,46.9,32.0,56,30.17,10.0,NE,3.5,-,N/A,,Overcast,50,2012-01-09 05:52:00